Tours, France

7:56 AM CEST on June 22, 2018 (GMT +0200)
Val de Loire Air Base

Weather History for LFOT - September, 2017

Change the Weather History Date:

Thursday, September 14, 2017

  Actual Average Record
Temperature  
Mean Temperature 58 °F -  
Max Temperature 65 °F 65 °F 77 °F (2005)
Min Temperature 52 °F 49 °F 39 °F (1996)
Degree Days  
Heating Degree Days 6    
Growing Degree Days 8 (Base 50)    
Moisture  
Dew Point 49 °F    
Average Humidity 74    
Maximum Humidity 100    
Minimum Humidity 35    
Precipitation  
Precipitation 0.47 in - - ()
Sea Level Pressure  
Sea Level Pressure 29.95 in    
Wind  
Wind Speed 12 mph ()    
Max Wind Speed 20 mph    
Max Gust Speed -    
Visibility 6.9 miles    
Events Rain    
Averages and records for this station are not official NWS values.
T = Trace of Precipitation, MM = Missing Value Source: Averaged Metar Reports

Daily Weather History Graph

Daily Weather History Graph

Search for Another Location

Airport or City:

Astronomy

Sep. 14, 2017 Rise Set
Actual Time 7:33 AM CEST 8:11 PM CEST
Civil Twilight 7:02 AM CEST 8:42 PM CEST
Nautical Twilight 6:25 AM CEST 9:18 PM CEST
Astronomical Twilight 5:46 AM CEST 9:56 PM CEST
Moon 12:58 AM CEST (9/14) 4:31 PM CEST (9/14)
Length of Visible Light 13h 39m
Length of Day
12h 37m
Last Quarter, 37% of the Moon is Illuminated
Sep 14
Last Quarter
Sep 20
New
Sep 28
First Quarter
Oct 5
Full
Oct 12
Last Quarter

Hourly Weather History & Observations

Time (CEST) Temp. Dew Point Humidity Pressure Visibility Wind Dir Wind Speed Gust Speed Precip Events Conditions
12:00 AM 63 °F 62 °F 94% 29.79 in 1 mi SSW 16.1 mph - - Rain Light Rain
12:00 AM 62.6 °F 62.6 °F 100% 29.77 in 2.5 mi SSW 16.1 mph - N/A Rain Light Rain
12:30 AM 62.6 °F 62.6 °F 100% 29.77 in - SW 17.3 mph - N/A Rain Light Rain
1:00 AM 56 °F 54 °F 91% 29.81 in 2 mi NW 19.6 mph - - Rain Rain
1:00 AM 55.4 °F 53.6 °F 94% 29.80 in - NW 19.6 mph - N/A Rain Rain
1:30 AM 55.4 °F 53.6 °F 94% 29.80 in 2.5 mi NW 11.5 mph - N/A Rain Rain
2:00 AM 55 °F 53 °F 92% 29.83 in 2 mi WNW 11.5 mph - - Rain Rain
2:00 AM 55.4 °F 53.6 °F 94% 29.83 in - WNW 11.5 mph - N/A Rain Rain
2:30 AM 53.6 °F 51.8 °F 94% 29.83 in - West 15.0 mph - N/A Rain Rain
3:00 AM 54 °F 52 °F 92% 29.84 in 6 mi West 11.5 mph - - Rain Light Rain
3:00 AM 53.6 °F 51.8 °F 94% 29.83 in 6.2 mi West 11.5 mph - N/A Rain Light Rain
3:30 AM 53.6 °F 53.6 °F 100% 29.83 in 6.2 mi West 9.2 mph - N/A Rain Light Rain
4:00 AM 54 °F 53 °F 95% 29.83 in 34 mi West 10.4 mph - -   Clear
4:00 AM 55.4 °F 53.6 °F 94% 29.83 in 6.2 mi West 10.4 mph - N/A   Overcast
4:30 AM 55.4 °F 53.6 °F 94% 29.83 in 6.2 mi WSW 11.5 mph - N/A Rain Rain
5:00 AM 55 °F 53 °F 89% 29.83 in 12 mi WSW 10.4 mph - - Rain Light Rain
5:00 AM 55.4 °F 53.6 °F 94% 29.83 in 6.2 mi WSW 10.4 mph - N/A Rain Light Rain
5:30 AM 55.4 °F 53.6 °F 94% 29.83 in 6.2 mi WSW 12.7 mph - N/A   Mostly Cloudy
6:00 AM 55 °F 53 °F 92% 29.84 in 11 mi WSW 11.5 mph - -   Clear
6:00 AM 55.4 °F 53.6 °F 94% 29.83 in 6.2 mi WSW 11.5 mph - N/A   Overcast
6:30 AM 55.4 °F 51.8 °F 88% 29.83 in 6.2 mi West 11.5 mph - N/A   Overcast
7:00 AM 54 °F 51 °F 88% 29.86 in 12 mi WSW 11.5 mph - -   Clear
7:00 AM 53.6 °F 51.8 °F 94% 29.83 in 6.2 mi WSW 11.5 mph - N/A   Overcast
7:30 AM 53.6 °F 50.0 °F 88% 29.86 in 6.2 mi WSW 15.0 mph - N/A   Mostly Cloudy
8:00 AM 53 °F 49 °F 80% 29.88 in 25 mi WSW 12.7 mph - -   Clear
8:00 AM 53.6 °F 48.2 °F 82% 29.86 in 6.2 mi WSW 12.7 mph - N/A   Mostly Cloudy
8:30 AM 53.6 °F 48.2 °F 82% 29.89 in 6.2 mi WSW 12.7 mph - N/A   Partly Cloudy
9:00 AM 53 °F 48 °F 79% 29.91 in 12 mi WSW 16.1 mph - -   Clear
9:00 AM 53.6 °F 48.2 °F 82% 29.89 in 6.2 mi WSW 16.1 mph - N/A   Partly Cloudy
9:30 AM 53.6 °F 48.2 °F 82% 29.92 in 6.2 mi West 16.1 mph - N/A   Mostly Cloudy
10:00 AM 55 °F 47 °F 68% 29.95 in 12 mi West 16.1 mph - -   Clear
10:00 AM 55.4 °F 48.2 °F 77% 29.95 in 6.2 mi West 16.1 mph - N/A   Mostly Cloudy
10:30 AM 55.4 °F 48.2 °F 77% 29.98 in 6.2 mi West 15.0 mph - N/A   Overcast
11:00 AM 56 °F 46 °F 60% 30.00 in 25 mi West 15.0 mph - -   Clear
11:00 AM 55.4 °F 46.4 °F 72% 29.98 in 6.2 mi West 15.0 mph - N/A   Mostly Cloudy
11:30 AM 57.2 °F 46.4 °F 67% 30.01 in 6.2 mi West 16.1 mph - N/A   Mostly Cloudy
12:00 PM 57.2 °F 44.6 °F 63% 30.01 in 6.2 mi West 16.1 mph - N/A   Mostly Cloudy
12:30 PM 57.2 °F 46.4 °F 67% 30.04 in 6.2 mi West 13.8 mph - N/A   Overcast
1:00 PM 59.0 °F 44.6 °F 59% 30.04 in 6.2 mi West 17.3 mph - N/A   Mostly Cloudy
1:30 PM 59.0 °F 44.6 °F 59% 30.04 in 6.2 mi West 15.0 mph - N/A   Mostly Cloudy
2:00 PM 59 °F 46 °F 51% 30.06 in 25 mi West 12.7 mph - -   Clear
2:00 PM 59.0 °F 46.4 °F 63% 30.06 in 6.2 mi West 12.7 mph - N/A   Mostly Cloudy
2:30 PM 62.6 °F 46.4 °F 55% 30.06 in 6.2 mi West 16.1 mph - N/A   Scattered Clouds
3:00 PM 62.6 °F 44.6 °F 52% 30.06 in 6.2 mi West 16.1 mph - N/A   Scattered Clouds
3:30 PM 62.6 °F 44.6 °F 52% 30.06 in 6.2 mi West 16.1 mph - N/A   Partly Cloudy
4:00 PM 65 °F 44 °F 36% 30.06 in 19 mi WSW 16.1 mph - -   Clear
4:00 PM 64.4 °F 44.6 °F 49% 30.06 in 6.2 mi WSW 16.1 mph - N/A   Scattered Clouds
4:30 PM 64.4 °F 44.6 °F 49% 30.06 in - West 13.8 mph - N/A   Clear
5:00 PM 64 °F 43 °F 35% 30.06 in 17 mi West 12.7 mph - -   Clear
5:00 PM 64.4 °F 42.8 °F 45% 30.06 in - West 12.7 mph - N/A   Clear
5:30 PM 66.2 °F 42.8 °F 43% 30.04 in - WSW 15.0 mph - N/A   Clear
6:00 PM 65 °F 44 °F 35% 30.04 in 25 mi WSW 13.8 mph - -   Clear
6:00 PM 64.4 °F 44.6 °F 49% 30.04 in - WSW 13.8 mph - N/A   Clear
6:30 PM 64.4 °F 44.6 °F 49% 30.04 in - West 11.5 mph - N/A   Clear
7:00 PM 64 °F 43 °F 35% 30.04 in 28 mi WSW 12.7 mph - -   Clear
7:00 PM 64.4 °F 42.8 °F 45% 30.04 in - WSW 12.7 mph - N/A   Clear
7:30 PM 62.6 °F 44.6 °F 52% 30.04 in - WSW 9.2 mph - N/A   Clear
8:00 PM 61 °F 45 °F 44% 30.05 in 31 mi WSW 5.8 mph - -   Clear
8:00 PM 60.8 °F 44.6 °F 55% 30.04 in 6.2 mi WSW 5.8 mph - N/A   Mostly Cloudy
8:30 PM 59.0 °F 50.0 °F 72% 30.06 in 6.2 mi WSW 13.8 mph - N/A   Overcast
9:00 PM 55.4 °F 50.0 °F 82% 30.06 in - West 3.5 mph - N/A   Clear
9:30 PM 53.6 °F 50.0 °F 88% 30.06 in 6.2 mi West 2.3 mph - N/A   Overcast
10:00 PM 54 °F 50 °F 81% 30.08 in 34 mi WSW 4.6 mph - -   Clear
10:00 PM 53.6 °F 50.0 °F 88% 30.06 in - WSW 4.6 mph - N/A   Clear
10:30 PM 55.4 °F 50.0 °F 82% 30.06 in 6.2 mi West 6.9 mph - N/A   Overcast
11:00 PM 54 °F 50 °F 83% 30.08 in 34 mi WSW 5.8 mph - -   Clear
11:00 PM 55.4 °F 50.0 °F 82% 30.06 in - WSW 5.8 mph - N/A   Clear
11:30 PM 55.4 °F 50.0 °F 82% 30.06 in - WSW 6.9 mph - N/A   Clear